Wetterdaten: aktuell Mittwoch, 25.11.2020 02:50
Datum Zeit Temperatur Bodentemp. Luftfeuchte Luftdruck Niederschlag Windgeschw. Windrichtung Windrichtung Sonnenschein Nieder.dauer Evapotrans. Solarstrahl. Taupunkt Windchill Windböen
25.11.2020 02:50 3,5 °C 2,2 °C 97 % 1017,2 hPa 0,0 l/m² 1,8 km/h (1 Bft) S-SO 157 ° 0 min 0 min 0 mm 0 W/m² 3,1 °C 3,5 °C 1,8 km/h (1 Bft)
25.11.2020 01:50 4,2 °C 2,8 °C 96 % 1017,3 hPa 0,0 l/m² 1,8 km/h (1 Bft) S-SO 157 ° 0 min 0 min 0 mm 0 W/m² 3,6 °C 4,2 °C 3,6 km/h (1 Bft)
25.11.2020 00:50 4,7 °C 3,3 °C 96 % 1017,9 hPa 0,0 l/m² 3,6 km/h (1 Bft) S 180 ° 0 min 0 min 0 mm 0 W/m² 4,1 °C 4,7 °C 7,2 km/h (2 Bft)
24.11.2020 23:50 5,4 °C 4,4 °C 95 % 1018,3 hPa 0,0 l/m² 9,0 km/h (2 Bft) SW 225 ° 0 min 0 min 0 mm 0 W/m² 4,7 °C 3,4 °C 10,8 km/h (2 Bft)
24.11.2020 22:50 6,2 °C 5,0 °C 94 % 1018,6 hPa 0,0 l/m² 7,2 km/h (2 Bft) S-SW 202 ° 0 min 0 min 0 mm 0 W/m² 5,3 °C 4,8 °C 10,8 km/h (2 Bft)
24.11.2020 21:50 6,7 °C 6,1 °C 94 % 1019,0 hPa 0,0 l/m² 9,0 km/h (2 Bft) S-SW 202 ° 0 min 0 min 0 mm 0 W/m² 5,8 °C 4,9 °C 12,6 km/h (3 Bft)
24.11.2020 20:50 6,9 °C 6,1 °C 94 % 1019,0 hPa 0,0 l/m² 9,0 km/h (2 Bft) S 180 ° 0 min 0 min 0 mm 0 W/m² 6,0 °C 5,1 °C 14,4 km/h (3 Bft)
24.11.2020 19:50 7,2 °C 6,1 °C 93 % 1019,2 hPa 0,0 l/m² 7,2 km/h (2 Bft) S 180 ° 0 min 0 min 0 mm 0 W/m² 6,1 °C 5,9 °C 10,8 km/h (2 Bft)
24.11.2020 18:50 7,6 °C 6,7 °C 92 % 1019,2 hPa 0,0 l/m² 9,0 km/h (2 Bft) S-SW 202 ° 0 min 0 min 0 mm 0 W/m² 6,4 °C 6,0 °C 16,1 km/h (3 Bft)
24.11.2020 17:50 7,7 °C 7,2 °C 92 % 1019,3 hPa 0,0 l/m² 10,8 km/h (2 Bft) S-SW 202 ° 0 min 0 min 0 mm 0 W/m² 6,5 °C 5,7 °C 14,4 km/h (3 Bft)
24.11.2020 16:50 7,8 °C 7,2 °C 91 % 1019,4 hPa 0,0 l/m² 7,2 km/h (2 Bft) S-SW 202 ° 0 min 0 min 0 mm 0 W/m² 6,4 °C 6,6 °C 10,8 km/h (2 Bft)
24.11.2020 15:50 8,0 °C 7,2 °C 91 % 1019,7 hPa 0,0 l/m² 10,8 km/h (2 Bft) S-SW 202 ° 0 min 0 min 0 mm 9 W/m² 6,6 °C 6,1 °C 17,9 km/h (3 Bft)
24.11.2020 14:50 8,1 °C 7,8 °C 91 % 1019,7 hPa 0,0 l/m² 10,8 km/h (2 Bft) S-SW 202 ° 0 min 0 min 0 mm 28 W/m² 6,7 °C 6,2 °C 14,4 km/h (3 Bft)
24.11.2020 13:50 8,0 °C 7,8 °C 91 % 1019,8 hPa 0,0 l/m² 12,6 km/h (3 Bft) S-SW 202 ° 0 min 0 min 0 mm 58 W/m² 6,6 °C 5,8 °C 16,1 km/h (3 Bft)
24.11.2020 12:50 7,8 °C 7,2 °C 91 % 1020,3 hPa 0,0 l/m² 10,8 km/h (2 Bft) SW 225 ° 0 min 0 min 0 mm 44 W/m² 6,4 °C 5,9 °C 12,6 km/h (3 Bft)
24.11.2020 11:50 7,6 °C 7,8 °C 91 % 1020,7 hPa 0,0 l/m² 14,4 km/h (3 Bft) SW 225 ° 0 min 0 min 0 mm 65 W/m² 6,2 °C 5,0 °C 21,5 km/h (4 Bft)
24.11.2020 10:50 7,2 °C 7,2 °C 93 % 1020,9 hPa 0,0 l/m² 12,6 km/h (3 Bft) SW 225 ° 0 min 0 min 0 mm 77 W/m² 6,1 °C 4,8 °C 21,5 km/h (4 Bft)
24.11.2020 09:50 5,9 °C 6,1 °C 98 % 1020,9 hPa 0,0 l/m² 9,0 km/h (2 Bft) S 180 ° 0 min 0 min 0 mm 37 W/m² 5,6 °C 4,0 °C 10,8 km/h (2 Bft)
24.11.2020 08:50 5,4 °C 5,0 °C 98 % 1021,0 hPa 0,0 l/m² 12,6 km/h (3 Bft) S 180 ° 0 min 0 min 0 mm 16 W/m² 5,1 °C 2,6 °C 17,9 km/h (3 Bft)
24.11.2020 07:50 4,8 °C 3,9 °C 96 % 1021,0 hPa 0,0 l/m² 7,2 km/h (2 Bft) W-SW 247 ° 0 min 0 min 0 mm 0 W/m² 4,2 °C 3,1 °C 19,7 km/h (3 Bft)
24.11.2020 06:50 4,9 °C 4,4 °C 94 % 1021,3 hPa 0,0 l/m² 10,8 km/h (2 Bft) S-SW 202 ° 0 min 0 min 0 mm 0 W/m² 4,0 °C 2,4 °C 17,9 km/h (3 Bft)
24.11.2020 05:50 5,1 °C 4,4 °C 91 % 1021,3 hPa 0,0 l/m² 10,8 km/h (2 Bft) S-SW 202 ° 0 min 0 min 0 mm 0 W/m² 3,8 °C 2,6 °C 16,1 km/h (3 Bft)
24.11.2020 04:50 4,3 °C 3,9 °C 92 % 1021,4 hPa 0,0 l/m² 9,0 km/h (2 Bft) SW 225 ° 0 min 0 min 0 mm 0 W/m² 3,1 °C 2,1 °C 10,8 km/h (2 Bft)
24.11.2020 03:50 4,5 °C 3,9 °C 91 % 1022,3 hPa 0,0 l/m² 12,6 km/h (3 Bft) S-SW 202 ° 0 min 0 min 0 mm 0 W/m² 3,2 °C 1,5 °C 17,9 km/h (3 Bft)
24.11.2020 03:00 4,8 °C 3,9 °C 90 % 1022,9 hPa 0,0 l/m² 9,0 km/h (2 Bft) SW 225 ° 0 min 0 min 0 mm 0 W/m² 3,3 °C 2,6 °C 16,1 km/h (3 Bft)
_ Min-Zeit 02:46 02:08 03:00 02:15 - 01:47 - - - - - - 03:58 05:32 02:00
Minimum _ 3,5 °C 2,2 °C 90 % 1017,2 hPa - 0,0 km/h (0 Bft) - - - - - - 3,0 °C 1,1 °C 0,0 km/h (0 Bft)
_ Max-Zeit 13:55 12:20 10:28 03:00 03:00 08:35 - - 03:00 03:00 12:00 10:37 13:12 14:37 08:33
Maximum _ 8,1 °C 8,9 °C 100 % 1022,9 hPa 0,0 l/m² 19,7 km/h
SW (3 Bft)
- - 0 min 0 min 0 mm 98 W/m² 7,0 °C 8,1 °C 34,1 km/h
S-SW (5 Bft)
Durchschnitt _ 6,1 °C 5,6 °C 93 % 1020,2 hPa #0,0 l/m² 9,5 km/h (2 Bft) S-SW - #0 min. #0 min. #0,000 mm 0 W/m² 5,1 °C 4,3 °C 14,5 km/h (3 Bft)